Showing default

LCS 1, 1361

Orbit data source: Space-Track

LCS 1, 1361 is an American payload satellite in LEO that was launched on Thu, 06 May 1965 UTC via a TITAN IIIA launch vehicle from the Air Force Eastern Test Range (AFETR). Payload-class satellites include a variety of spacecraft equipped with specific instruments for various scientific and technological missions. These include communications satellites like Starlink; space stations such as the ISS; scientific satellites like the Hubble; Earth observation satellites from companies like Planet Labs, Umbra, and HawkEye 360; GPS; miniature CubeSats for education and research; and military/defense satellites.

Loading next visibility...
Identifier
1361, 1965-034C
Orbit
LEO
Last TLE update
2 days ago
Origin
Manufacturer
ROHR/MITLL
Mission
Operational Defense Calibration
Bus & Motor
LCS, Unknown motor
Mass
34 kg wet, 34 kg dry
Launch date (UTC)
1965-05-06 (60 years ago)
Launch vehicle
TITAN IIIA
Launch site
Air Force Eastern Test Range (AFETR)
Object type
Payload
Rocket body
Debris
Shape & HBR
Sphere, 1.13 m
Radar Cross Section
1.003 m², Medium (>0.1 m² and < 1m²)

Expand to show TLE details & history

TLE from 2 days ago
0 LCS 1
1 01361U 65034C   25107.95390501 -.00000006  00000-0 -18944-2 0  9992
2 01361  32.1377 106.6709 0011691  55.3655 304.7944  9.89308505167778
Epoch: 2025-04-17T22:53Z
Definitive object data (Epoch: 2025-04-17T22:53:37.392Z)
Latitude
0.00001°
Longitude
-83.05328°
Altitude
2,780.735 km
Speed
6.601 km/s
True Right ascension
07h 06m 41s
True Declination
0° 00' 00"
Sunlit
Object was in daylight at TLE epoch
Visualization TLE readout
Latitude
-32.19891°
Longitude
-174.02106°
Altitude
2,805.384 km
Speed
6.586 km/s
Apparent Right ascension
22h 39m 12s
Apparent Declination
-63° 14' 55"
Sunlit
Object is in daylight
Visualization observer readout
Local Sidereal Time
03:13:28
Azimuth
207.926° SW
Elevation
-26.54°
Doppler factor
1
Orbital elements
Apogee altitude
2,801.371 km
Perigee altitude
2,779.933 km
Semi-major axis
9,168.789 km
Eccentricity
0.0011691
Inclination
32.1377°
RAAN
106.6709°
Arg. of periapsis
55.3655°
True anomaly
304.68429°
Mean anomaly
304.7944°
Eccentric anomaly
304.73936°
Mean motion
2.47215 °/min
BSTAR
-0.0018944
Orbital period
145.62 mins
Loading maneuver chart data...
Loading SW <> Apogee altitude chart data...
Loading historical data...
Loading historical data...
Loading historical data...
Loading historical data...
Loading historical data...
Loading historical data...
Loading historical data...
Other satellites on launch #34 in the year 1965 (1965-05-06 UTC)

LCS 1 Visibility forecast

Observer location: undefined°, undefined°

Span
Click to sort rows by Start time (UTC) header in descending order
Start Az.
Max El. time (UTC)
Max El. Az.
Max El.
End time (UTC)
End Az.
5 mins2025-04-19 23:28:12.029Z144.767° SSE2025-04-19 23:30:12.029Z137.077° SSE10.747°2025-04-19 23:33:12.029Z125.521° SE
26 mins2025-04-20 01:54:12.029Z208.243° SW2025-04-20 02:06:12.029Z152.705° SSE31.743°2025-04-20 02:20:12.029Z88.978° E
29 mins2025-04-20 04:29:12.029Z245.113° WSW2025-04-20 04:43:12.029Z176.407° S41.514°2025-04-20 04:58:12.029Z95.247° ESE
29 mins2025-04-20 07:07:12.029Z266.311° W2025-04-20 07:21:12.029Z193.972° SSW40.935°2025-04-20 07:36:12.029Z118.67° SE
25 mins2025-04-20 09:46:12.029Z267.217° W2025-04-20 09:58:12.029Z212.179° SW29.277°2025-04-20 10:11:12.029Z155.29° SSE
|